Location: Unspecified
(41.1637°N, 0.0000°E)
Time: 02:13:47
(UTC+00:00)

RS-15 - Visible Passes

Search period start: 25 August 2019 00:00
Search period end: 04 September 2019 00:00
Orbit: 1900 x 2145 km, 64.8° (Epoch: 23 August)

Date Brightness Start Highest point End Pass type
(mag) Time Alt. Az. Time Alt. Az. Time Alt. Az.
25 Aug 8.7 02:28:00 19° SSE 02:35:38 44° ESE 02:45:43 10° NE visible
25 Aug 8.2 04:36:32 10° SW 04:47:39 58° NW 04:58:29 10° NNE visible
26 Aug 9.0 01:53:47 20° SSE 01:59:57 33° ESE 02:09:13 10° NE visible
26 Aug 8.0 04:01:34 15° SW 04:11:26 71° NW 04:22:28 10° NNE visible
27 Aug 9.3 01:19:30 18° SE 01:24:23 24° ESE 01:32:23 10° NE visible
27 Aug 7.9 03:27:18 24° SSW 03:35:20 87° WNW 03:46:25 10° NNE visible
28 Aug 9.5 00:45:11 14° ESE 00:48:56 16° E 00:54:54 10° ENE visible
28 Aug 8.0 02:52:58 31° SSW 02:59:21 75° ESE 03:10:20 10° NE visible
29 Aug 8.2 02:18:36 37° S 02:23:28 59° ESE 02:34:10 10° NE visible
29 Aug 8.4 04:26:23 13° WSW 04:36:11 45° NW 04:46:38 10° NNE visible
30 Aug 8.5 01:44:11 37° SSE 01:47:42 45° ESE 01:57:53 10° NE visible
30 Aug 8.2 03:51:58 22° WSW 03:59:49 56° NW 04:10:36 10° NNE visible
31 Aug 8.8 01:09:44 32° SE 01:12:00 34° ESE 01:21:25 10° NE visible
31 Aug 8.0 03:17:30 32° SW 03:23:35 69° NW 03:34:35 10° NNE visible
01 Sep 9.1 00:35:15 24° ESE 00:36:26 25° ESE 00:44:39 10° NE visible
01 Sep 7.9 02:43:01 45° SW 02:47:27 85° WNW 02:58:32 10° NNE visible
01 Sep 8.9 04:52:06 10° W 05:01:35 30° NNW 05:10:56 10° NNE visible
02 Sep 9.4 00:00:43 17° E 00:00:57 17° E 00:07:18 10° ENE visible
02 Sep 7.9 02:08:29 56° S 02:11:28 78° ESE 02:22:28 10° NE visible
02 Sep 8.7 04:16:16 14° W 04:24:54 36° NW 04:34:48 10° NNE visible
02 Sep 9.7 23:26:10 11° E 23:26:10 11° E 23:27:57 10° E visible
03 Sep 8.0 01:33:56 57° SSE 01:35:34 61° ESE 01:46:19 10° NE visible
03 Sep 8.5 03:41:43 23° W 03:48:22 44° NW 03:58:44 10° NNE visible
